Regional Weather Roundup
Issued by NWS Goodland, KS

Home | Current Version | Previous Version | Text Only | Print | Product List | Glossary Off
Versions: 1 2 3 4 5 6 7 8 9 10 11 12 13 14 15 16 17 18 19 20 21 22 23 24 25 26 27 28 29 30 31 32 33 34 35 36 37 38 39 40 41 42 43 44 45 46 47 48 49 50

000
ASUS43 KGLD 231708
RWRGLD

GOODLAND FORECAST AREA HOURLY WEATHER ROUNDUP
NATIONAL WEATHER SERVICE GOODLAND KS
1100 AM MDT SAT SEP 23 2017

...OFFICIAL OBSERVATIONS...

CITY           SKY/WX    TMP DP  RH WIND       PRES   REMARKS
GOODLAND KS    CLOUDY    61  52  72 N6        29.96R
HILL CITY KS   MOSUNNY   87  66  49 S13G26    29.90S
IMPERIAL NEB   CLOUDY    53  48  83 NE13      29.95S
MCCOOK NEB     CLOUDY    78  64  61 S12       29.89S
AKRON CO       RAIN      45  43  93 E13       30.00R FOG
BURLINGTON CO  CLOUDY    53  47  79 W18       30.05R
LIMON CO         N/A    N/A N/A N/A MISG      30.08R
$$

...UNOFFICIAL OBSERVATIONS...

CITY           SKY/WX    TMP DP  RH WIND       PRES   REMARKS
LENORA KS        N/A     83  32  16 MISG        N/A
NORTON KS      SUNNY     84  59  42 S17       29.89F
SHARON SPRINGS   N/A     75  64  68 S18G29      N/A
KIT CARSON CO    N/A     50  47  88 MISG        N/A
YUMA CO        TSTM      45  45 100 NW20      29.94F VSB 1/4
$$




USA.gov is the U.S. government's official web portal to all federal, state and local government web resources and services.